Location: downtown San Diego
(32.7310°N, 117.1990°W)
Time: 19:25:34
(UTC-07:00)

Daily predictions for brighter satellites

Satellite Brightness Start Highest point End
(mag) Time Altitude Azimuth Time Altitude Azimuth Time Altitude Azimuth
H-2A R/B 3.8 19:02:59 10° W 19:07:44 66° S 19:44:56 10° ESE
H-2A R/B 3.8 19:03:00 10° W 19:07:44 66° S 19:44:56 10° ESE
H-2A R/B 3.8 19:03:00 10° W 19:07:44 66° S 19:44:55 10° ESE
H-2A R/B 3.8 19:02:59 10° W 19:07:45 66° S 19:44:55 10° ESE
H-2A R/B 3.8 19:03:00 10° W 19:07:45 66° S 19:44:56 10° ESE
H-2A R/B 3.8 19:02:59 10° W 19:07:45 66° S 19:44:56 10° ESE
H-2A R/B 3.8 19:03:00 10° W 19:07:45 66° S 19:44:55 10° ESE
Cosmos 1486 Rocket 4.2 19:43:21 10° N 19:48:30 55° ENE 19:53:39 10° SSE
Cosmos 1892 2.6 19:45:32 10° N 19:49:20 81° E 19:53:09 10° S
Atlas Centaur 2 2.8 19:50:29 10° WSW 19:56:27 57° SSE 20:03:53 10° E
Lacrosse 4 Rocket 2.6 19:54:15 10° N 19:58:01 28° ENE 20:01:49 10° ESE
Cosmos 2263 Rocket 3.6 19:54:19 10° NNE 19:58:21 20° ENE 20:02:22 10° ESE
Helios 1B rocket 3.5 19:56:58 10° NE 20:00:17 23° E 20:03:35 10° SSE
GRACE-1 4.1 19:57:51 10° NNE 20:00:30 45° E 20:03:07 10° SSE
GRACE-2 4.1 19:58:14 10° NNE 20:00:52 45° E 20:03:29 10° SSE
BREEZE-M DEB (TANK) 3.6 19:57:45 10° SW 20:01:38 85° NW 20:08:10 10° NE
ALOS 2.5 19:57:18 10° S 20:01:57 76° WSW 20:06:38 10° NNW
Resurs 01 Rocket 1.8 19:57:58 10° SSE 20:02:16 52° ENE 20:06:36 10° N
H-2A R/B 2.8 19:58:49 10° SSE 20:02:40 65° ENE 20:06:30 10° N
Cosmos 2322 Rocket 2.1 19:58:39 10° SSW 20:04:14 79° ESE 20:09:52 10° NNE
Cosmos 1869 3.2 20:00:34 10° S 20:04:27 68° E 20:08:22 10° NNE
ATLAS CENTAUR R/B 2.6 20:02:00 10° NW 20:04:52 58° SW 20:12:08 10° SSE
FALCON 9 R/B 0.7 20:03:15 10° W 20:06:32 63° N 20:08:41 10° ENE
OTV 4 3.2 20:08:12 10° SW 20:08:42 10° SW 20:09:13 10° SSW
Cosmos 1825 3.1 20:07:37 10° NNE 20:11:00 30° E 20:14:15 11° SE
Intercosmos 25 Rocket 3.5 20:08:27 10° SSE 20:11:22 37° E 20:14:48 10° NNE
COSMOS 2428 4.4 20:10:54 11° ESE 20:11:52 12° E 20:13:51 10° ENE
Cosmos 2360 Rocket 2.9 20:07:46 10° SSE 20:12:42 32° ESE 20:17:38 10° NE
SJ-6B 4.0 20:09:18 10° S 20:13:03 45° W 20:16:56 10° NNW
OAO 3 Rocket 3.5 20:08:40 10° W 20:13:30 67° N 20:18:18 11° E
Spot 2 Rocket 3.5 20:12:55 10° SSE 20:18:00 74° ENE 20:23:04 10° N
Cosmos 1503 Rocket 4.2 20:15:28 10° N 20:20:36 55° ENE 20:25:24 11° SSE
Cosmos 2142 Rocket 4.5 20:18:42 10° S 20:24:49 90° W 20:31:00 10° N
Cosmos 1408 2.7 20:22:16 10° N 20:25:51 50° E 20:28:49 14° SSE
Cosmos 1354 Rocket 4.0 20:21:20 10° N 20:26:34 64° ENE 20:31:22 12° SSE
Cosmos 2322 4.2 20:22:51 10° S 20:28:04 37° ESE 20:33:17 10° NE
CZ-2D R/B 3.3 20:25:34 10° SSE 20:29:27 87° WSW 20:33:21 10° NNW
ATLAS 5 CENTAUR R/B 3.6 20:26:21 10° N 20:31:29 27° NE 20:35:09 17° E
Meteor 1-29 3.3 20:28:56 10° NNE 20:32:14 43° E 20:35:17 11° S
SL-16 R/B 3.0 20:28:43 10° SW 20:34:16 57° WNW 20:39:51 10° NNE
Cosmos 1315 Rocket 4.2 20:33:07 10° NNW 20:36:54 39° W 20:40:38 10° SSW
Envisat 3.3 20:34:34 17° SE 20:38:09 48° ENE 20:43:01 10° N
Cosmos 1733 Rocket 3.2 20:35:07 10° N 20:39:28 53° E 20:42:20 20° SSE
Cosmos 2026 Rocket 3.9 20:35:04 10° N 20:41:17 80° E 20:47:23 10° S
Cosmos 1933 3.2 20:37:36 10° S 20:41:36 66° E 20:45:36 10° NNE
Cosmos 1862 Rocket 3.5 20:39:35 10° S 20:44:01 79° E 20:48:31 10° N
USA 186 1.8 20:42:57 21° S 20:44:36 62° W 20:47:28 10° NNW
Helios 1A 2.9 20:42:30 20° SSE 20:45:21 68° ENE 20:49:35 10° N
USA 234 4.3 20:44:02 17° E 20:48:15 33° NE 20:53:57 10° NNW
CZ-4B DEB 2.8 20:49:12 47° E 20:49:31 49° ENE 20:52:28 10° N
ERBS 3.7 20:48:23 10° WNW 20:51:33 34° WSW 20:53:16 21° S
SEDSat Delta rocket 3.4 20:48:10 10° W 20:53:15 79° S 20:56:23 28° E
SJ-11-01 4.3 20:52:17 28° SE 20:54:37 60° ENE 20:59:12 10° N
YAOGAN 6 3.7 20:55:57 28° ENE 20:55:57 28° ENE 20:58:52 10° NNE
Cosmos 1862 3.4 20:58:45 10° N 21:02:48 78° W 21:04:50 28° S
ERS-1 Rocket 3.6 21:02:03 34° E 21:03:08 37° ENE 21:07:44 10° N
Cosmos 1703 Rocket 3.8 21:04:06 44° ESE 21:04:37 46° E 21:08:51 10° NNE
SeaSat 1 4.5 21:07:43 13° ENE 21:08:14 13° NE 21:10:33 10° NNE
Centaur AC-42 3.8 20:54:05 10° W 21:13:23 35° SSW 21:16:02 26° SSE
Cosmos 2219 Rocket 3.8 21:19:12 18° ENE 21:19:12 18° ENE 21:21:02 10° NE
Sakura Rocket 3.4 21:13:47 10° WSW 21:16:56 43° SSW 21:16:56 43° SSW
Meteor 2-10 Rocket 3.8 21:11:41 10° S 21:17:30 82° W 21:23:19 10° N
Cosmos 1939 Rocket 3.0 21:16:28 45° S 21:17:35 72° WSW 21:21:36 10° NNW
Meteor 1-26 Rocket 4.2 21:16:13 16° S 21:20:49 89° E 21:26:38 10° N
Cosmos 2221 Rocket 3.8 21:25:40 52° NE 21:25:40 52° NE 21:29:22 10° NNE
NOSS 3-1 (C) 4.0 21:29:43 35° ENE 21:29:43 35° ENE 21:33:44 10° NE
SPOT 5 3.8 21:29:53 32° NE 21:29:53 32° NE 21:33:21 10° N
Cosmos 2266 Rocket 4.0 21:23:52 10° N 21:30:09 67° E 21:31:45 50° SE
USA 229 DEB 4.0 21:26:39 10° SW 21:33:23 65° WNW 21:40:15 10° NNE
USA 229 4.0 21:26:45 10° SW 21:33:29 65° WNW 21:40:22 10° NNE
Lacrosse 4 Rocket 3.6 21:33:13 10° WNW 21:36:32 21° WSW 21:38:25 16° SW
Cosmos 2263 Rocket 2.9 21:37:09 10° NW 21:42:27 46° WSW 21:44:21 33° SSW
Atlas Centaur 2 2.7 21:38:57 10° W 21:45:55 76° S 21:47:50 54° ESE
COSMOS 2428 2.9 21:52:40 31° SW 21:55:24 70° WNW 22:01:06 10° NNE
Cosmos 2360 Rocket 4.1 21:51:48 10° WSW 21:56:37 28° WNW 22:01:28 10° N
OAO 3 Rocket 3.8 21:52:16 10° WNW 21:56:07 54° W 21:56:07 54° W
MetOp-B 4.1 22:01:42 79° NW 22:01:42 79° NW 22:06:47 10° NNW
MOS 1-B Rocket 3.9 22:03:26 70° NE 22:03:26 70° NE 22:08:45 10° N
Milstar 3 3.4 21:59:06 10° W 22:05:16 38° SSW 22:05:16 38° SSW
NOAA 11 4.3 22:07:25 70° W 22:07:25 70° W 22:12:45 10° NNW
Cosmos 968 Rocket 4.3 22:03:31 10° NNW 22:08:28 45° WSW 22:08:32 45° WSW
CZ-4C R/B 4.2 22:02:52 10° N 22:08:42 25° NE 22:09:38 25° ENE
Meteor 1-25 Rocket 4.4 22:07:48 10° NNW 22:12:49 67° NW 22:12:49 67° NW
USA 245 4.4 22:14:23 67° NNW 22:14:23 67° NNW 22:18:49 10° NNW
Nadezhda 2 Rocket 4.5 22:09:16 10° N 22:15:36 85° NW 22:15:36 85° NW
ATLAS 5 CENTAUR R/B 3.0 22:10:26 10° NW 22:16:25 50° WSW 22:16:45 49° SW
Terra 3.9 22:19:36 19° NNE 22:19:36 19° NNE 22:21:13 10° N
ARGOS 3.6 22:19:22 59° NW 22:19:22 59° NW 22:23:46 10° NNW
H-2A R/B 3.2 22:21:01 35° N 22:21:01 35° N 22:23:56 10° N
USA 234 3.4 22:31:22 62° WSW 22:31:22 62° WSW 22:37:25 10° NW
Cosmos 2237 Rocket 3.9 22:37:35 24° NNE 22:37:35 24° NNE 22:39:48 10° NNE
Cosmos 2333 Rocket 3.3 22:37:13 39° N 22:37:13 39° N 22:40:49 10° NNE
Cosmos 2278 Rocket 3.7 22:38:20 10° N 22:41:25 29° NNE 22:41:25 29° NNE
Cosmos 1844 Rocket 3.7 22:38:57 10° NNW 22:42:37 42° NW 22:42:37 42° NW
SeaSat 1 4.1 22:47:30 31° NW 22:47:30 31° NW 22:50:07 10° NNW
Cosmos 2219 Rocket 3.7 23:00:48 32° NW 23:00:48 32° NW 23:05:13 10° N
ATLAS 2AS CENTAUR R/B 4.2 23:39:38 32° NE 23:39:38 32° NE 23:43:32 10° NE
